TPC5711 PANC-PAJN

Flight info

Callsign TPC5711
Flight time 1h 17m
Altitude 39000
Route DCT JOH J501 YAK DCT FAKES DCT ASORT DCT
Aircraft B737/M-SDE2E3FGHIRWXY/LB1

Departure

Time 2026-05-06 01:29
Airport Ted Stevens Anchorage International Airport (PANC)

Arrival

Time 2026-05-06 02:46
Airport Juneau International Airport (PAJN)
Time Latitude Longitude Altitude Speed Heading
2026-05-06 00:53 61.17260 -149.96712 119 ft 0 kts 359°
2026-05-06 01:17 61.17255 -149.96711 115 ft 4 kts 360°
2026-05-06 01:17 61.17228 -149.96712 115 ft 4 kts
2026-05-06 01:17 61.17201 -149.96715 117 ft 4 kts
2026-05-06 01:17 61.17174 -149.96715 116 ft 4 kts 353°
2026-05-06 01:18 61.17148 -149.96704 110 ft 4 kts 340°
2026-05-06 01:18 61.17135 -149.96693 118 ft 1 kts 340°
2026-05-06 01:18 61.17133 -149.96692 118 ft 0 kts 340°
2026-05-06 01:24 61.17136 -149.96690 119 ft 1 kts 11°
2026-05-06 01:24 61.17138 -149.96643 117 ft 8 kts 92°
2026-05-06 01:25 61.17132 -149.96515 121 ft 10 kts 91°
2026-05-06 01:25 61.17133 -149.96361 119 ft 11 kts 90°
2026-05-06 01:25 61.17131 -149.96200 119 ft 11 kts 92°
2026-05-06 01:25 61.17131 -149.96041 119 ft 12 kts 90°
2026-05-06 01:26 61.17132 -149.95849 119 ft 15 kts 90°
2026-05-06 01:26 61.17132 -149.95615 119 ft 17 kts 90°
2026-05-06 01:26 61.17133 -149.95352 119 ft 19 kts 90°
2026-05-06 01:26 61.17131 -149.95075 119 ft 19 kts 91°
2026-05-06 01:27 61.17097 -149.94850 119 ft 17 kts 153°
2026-05-06 01:27 61.16997 -149.94873 118 ft 11 kts 204°
2026-05-06 01:27 61.16980 -149.94935 117 ft 0 kts 261°
2026-05-06 01:28 61.16978 -149.95005 119 ft 23 kts 267°
2026-05-06 01:28 61.16976 -149.95924 118 ft 103 kts 269°
2026-05-06 01:28 61.16973 -149.97851 182 ft 158 kts 271°
2026-05-06 01:28 61.16989 -150.00323 621 ft 183 kts 266°
2026-05-06 01:29 61.16922 -150.03116 1239 ft 201 kts 266°
2026-05-06 01:29 61.16892 -150.06086 1955 ft 211 kts 268°
2026-05-06 01:29 61.16866 -150.09352 2392 ft 245 kts 268°
2026-05-06 01:29 61.16838 -150.13037 3074 ft 262 kts 268°
2026-05-06 01:30 61.16813 -150.16841 3703 ft 265 kts 268°
2026-05-06 01:30 61.16797 -150.20688 3975 ft 268 kts 268°
2026-05-06 01:30 61.16787 -150.24573 3985 ft 271 kts 268°
2026-05-06 01:30 61.16548 -150.28396 3982 ft 267 kts 247°
2026-05-06 01:31 61.15518 -150.31491 4048 ft 262 kts 218°
2026-05-06 01:31 61.13882 -150.33019 4773 ft 259 kts 185°
2026-05-06 01:31 61.12130 -150.32625 5964 ft 255 kts 158°
2026-05-06 01:31 61.10654 -150.30592 7047 ft 259 kts 137°
2026-05-06 01:32 61.09363 -150.27915 8076 ft 267 kts 131°
2026-05-06 01:32 61.08504 -150.24496 9157 ft 274 kts 106°
2026-05-06 01:32 61.08068 -150.20618 10241 ft 280 kts 103°
2026-05-06 01:32 61.07634 -150.16530 10792 ft 306 kts 104°
2026-05-06 01:33 61.07118 -150.12035 11048 ft 337 kts 105°
2026-05-06 01:33 61.06518 -150.07239 11656 ft 351 kts 106°
2026-05-06 01:33 61.05860 -150.02334 12534 ft 357 kts 107°
2026-05-06 01:33 61.05161 -149.97388 13469 ft 361 kts 108°
2026-05-06 01:34 61.04429 -149.92383 14273 ft 367 kts 108°
2026-05-06 01:34 61.03672 -149.87306 15073 ft 373 kts 108°
2026-05-06 01:34 61.02887 -149.82166 15872 ft 379 kts 109°
2026-05-06 01:34 61.02079 -149.76957 16708 ft 383 kts 109°
2026-05-06 01:35 61.01257 -149.71688 17519 ft 389 kts 109°
2026-05-06 01:35 61.00420 -149.66347 18262 ft 395 kts 109°
2026-05-06 01:35 60.99567 -149.60911 18920 ft 402 kts 110°
2026-05-06 01:35 60.98696 -149.55383 19564 ft 406 kts 109°
2026-05-06 01:36 60.97821 -149.49840 20331 ft 409 kts 110°
2026-05-06 01:36 60.96928 -149.44219 20923 ft 416 kts 110°
2026-05-06 01:36 60.96021 -149.38530 21615 ft 419 kts 109°
2026-05-06 01:36 60.95112 -149.32825 22365 ft 422 kts 110°
2026-05-06 01:37 60.94189 -149.27051 22904 ft 428 kts 109°
2026-05-06 01:37 60.93252 -149.21216 23505 ft 431 kts 109°
2026-05-06 01:37 60.92307 -149.15345 23983 ft 435 kts 110°
2026-05-06 01:37 60.91349 -149.09417 24407 ft 440 kts 110°
2026-05-06 01:38 60.90378 -149.03425 24857 ft 444 kts 110°
2026-05-06 01:38 60.89399 -148.97390 25393 ft 444 kts 110°
2026-05-06 01:38 60.88422 -148.91369 25925 ft 446 kts 111°
2026-05-06 01:38 60.87427 -148.85299 26336 ft 451 kts 111°
2026-05-06 01:39 60.86417 -148.79164 26710 ft 456 kts 111°
2026-05-06 01:39 60.85401 -148.72974 27095 ft 460 kts 111°
2026-05-06 01:39 60.84375 -148.66744 27452 ft 463 kts 111°
2026-05-06 01:39 60.83329 -148.60479 27829 ft 466 kts 111°
2026-05-06 01:40 60.82272 -148.54172 28193 ft 470 kts 111°
2026-05-06 01:40 60.81211 -148.47817 28523 ft 473 kts 111°
2026-05-06 01:40 60.80144 -148.41415 28848 ft 476 kts 111°
2026-05-06 01:40 60.79060 -148.34992 29146 ft 479 kts 112°
2026-05-06 01:41 60.77962 -148.28519 29407 ft 483 kts 112°
2026-05-06 01:41 60.76839 -148.21914 29718 ft 486 kts 112°
2026-05-06 01:41 60.76103 -148.17593 29927 ft 487 kts 112°
2026-05-06 01:41 60.74984 -148.11032 30161 ft 490 kts 112°
2026-05-06 01:42 60.73859 -148.04458 30431 ft 490 kts 112°
2026-05-06 01:42 60.72654 -147.97440 30785 ft 490 kts 112°
2026-05-06 01:42 60.71525 -147.90888 31142 ft 488 kts 112°
2026-05-06 01:42 60.70396 -147.84356 31498 ft 488 kts 112°
2026-05-06 01:43 60.69262 -147.77826 31832 ft 488 kts 112°
2026-05-06 01:43 60.68126 -147.71304 32162 ft 487 kts 112°
2026-05-06 01:43 60.66986 -147.64788 32451 ft 489 kts 113°
2026-05-06 01:43 60.65841 -147.58261 32750 ft 489 kts 113°
2026-05-06 01:44 60.64693 -147.51742 33119 ft 488 kts 113°
2026-05-06 01:44 60.63546 -147.45246 33521 ft 487 kts 113°
2026-05-06 01:44 60.62398 -147.38770 33891 ft 486 kts 113°
2026-05-06 01:44 60.61246 -147.32298 34179 ft 486 kts 113°
2026-05-06 01:45 60.60092 -147.25831 34459 ft 486 kts 113°
2026-05-06 01:45 60.58935 -147.19373 34749 ft 486 kts 113°
2026-05-06 01:45 60.57776 -147.12925 35039 ft 485 kts 113°
2026-05-06 01:45 60.56613 -147.06476 35322 ft 485 kts 114°
2026-05-06 01:46 60.55447 -147.00034 35550 ft 487 kts 114°
2026-05-06 01:46 60.54275 -146.93578 35821 ft 487 kts 114°
2026-05-06 01:46 60.53104 -146.87147 36192 ft 484 kts 114°
2026-05-06 01:46 60.51938 -146.80760 36530 ft 482 kts 114°
2026-05-06 01:47 60.50768 -146.74373 36780 ft 483 kts 114°
2026-05-06 01:47 60.49592 -146.67979 37006 ft 484 kts 114°
2026-05-06 01:47 60.48415 -146.61587 37274 ft 484 kts 113°
2026-05-06 01:47 60.47427 -146.55062 37553 ft 486 kts 107°
2026-05-06 01:48 60.46651 -146.48399 37815 ft 486 kts 105°
2026-05-06 01:48 60.45943 -146.41694 38020 ft 487 kts 105°
2026-05-06 01:48 60.45248 -146.34981 38254 ft 487 kts 105°
2026-05-06 01:48 60.44542 -146.28279 38516 ft 486 kts 105°
2026-05-06 01:49 60.43817 -146.21600 38738 ft 485 kts 105°
2026-05-06 01:49 60.43074 -146.14933 38882 ft 486 kts 106°
2026-05-06 01:49 60.41549 -146.01561 38887 ft 487 kts 106°
2026-05-06 01:50 60.40012 -145.88262 38891 ft 485 kts 106°
2026-05-06 01:50 60.38469 -145.75018 38892 ft 484 kts 106°
2026-05-06 01:51 60.36917 -145.61807 38883 ft 483 kts 107°
2026-05-06 01:51 60.35353 -145.48613 38904 ft 483 kts 107°
2026-05-06 01:52 60.33777 -145.35415 38911 ft 484 kts 107°
2026-05-06 01:52 60.32181 -145.22211 38902 ft 485 kts 107°
2026-05-06 01:53 60.30570 -145.09005 38901 ft 485 kts 107°
2026-05-06 01:53 60.28947 -144.95797 38898 ft 485 kts 107°
2026-05-06 01:54 60.27311 -144.82595 38906 ft 486 kts 108°
2026-05-06 01:54 60.25661 -144.69388 38916 ft 486 kts 108°
2026-05-06 01:55 60.23994 -144.56210 38925 ft 486 kts 108°
2026-05-06 01:55 60.22315 -144.43031 38918 ft 486 kts 108°
2026-05-06 01:56 60.20620 -144.29861 38907 ft 486 kts 108°
2026-05-06 01:56 60.18915 -144.16714 38911 ft 486 kts 108°
2026-05-06 01:57 60.17197 -144.03573 38920 ft 486 kts 108°
2026-05-06 01:57 60.15454 -143.90356 38921 ft 486 kts 108°
2026-05-06 01:58 60.13711 -143.77248 38926 ft 486 kts 109°
2026-05-06 01:58 60.11953 -143.64146 38923 ft 486 kts 109°
2026-05-06 01:59 60.10183 -143.51056 38929 ft 486 kts 109°
2026-05-06 01:59 60.08401 -143.37989 38930 ft 486 kts 109°
2026-05-06 02:00 60.06604 -143.24928 38935 ft 486 kts 109°
2026-05-06 02:00 60.04796 -143.11890 38944 ft 486 kts 109°
2026-05-06 02:01 60.02974 -142.98855 38928 ft 486 kts 109°
2026-05-06 02:01 60.01141 -142.85847 38940 ft 486 kts 109°
2026-05-06 02:02 59.99294 -142.72851 38952 ft 486 kts 109°
2026-05-06 02:02 59.97434 -142.59864 38951 ft 487 kts 110°
2026-05-06 02:03 59.95559 -142.46878 38957 ft 487 kts 110°
2026-05-06 02:03 59.93671 -142.33904 38936 ft 487 kts 110°
2026-05-06 02:04 59.91773 -142.20958 38957 ft 487 kts 110°
2026-05-06 02:04 59.89859 -142.08014 38961 ft 487 kts 110°
2026-05-06 02:05 59.87931 -141.95070 38971 ft 487 kts 110°
2026-05-06 02:05 59.85991 -141.82149 38979 ft 487 kts 110°
2026-05-06 02:06 59.84038 -141.69239 38962 ft 487 kts 111°
2026-05-06 02:06 59.82075 -141.56353 38982 ft 487 kts 111°
2026-05-06 02:07 59.80097 -141.43480 38989 ft 487 kts 111°
2026-05-06 02:07 59.78108 -141.30623 38989 ft 487 kts 111°
2026-05-06 02:08 59.76104 -141.17774 38992 ft 487 kts 111°
2026-05-06 02:08 59.74090 -141.04947 38964 ft 487 kts 111°
2026-05-06 02:09 59.72063 -140.92139 38992 ft 487 kts 112°
2026-05-06 02:09 59.70026 -140.79354 39002 ft 486 kts 112°
2026-05-06 02:10 59.67978 -140.66597 39005 ft 486 kts 112°
2026-05-06 02:10 59.65820 -140.53932 39007 ft 485 kts 114°
2026-05-06 02:11 59.63963 -140.43479 39004 ft 485 kts 114°
2026-05-06 02:11 59.61721 -140.30911 38998 ft 485 kts 114°
2026-05-06 02:12 59.59483 -140.18343 39003 ft 485 kts 114°
2026-05-06 02:12 59.57240 -140.05778 39020 ft 486 kts 114°
2026-05-06 02:13 59.54986 -139.93232 39017 ft 485 kts 114°
2026-05-06 02:13 59.52720 -139.80704 39020 ft 485 kts 114°
2026-05-06 02:14 59.50443 -139.68201 39023 ft 485 kts 114°
2026-05-06 02:14 59.48138 -139.55631 39025 ft 485 kts 114°
2026-05-06 02:15 59.45837 -139.43167 39034 ft 485 kts 115°
2026-05-06 02:15 59.43523 -139.30709 39028 ft 485 kts 115°
2026-05-06 02:16 59.41197 -139.18266 39032 ft 485 kts 115°
2026-05-06 02:16 59.38859 -139.05844 39033 ft 485 kts 115°
2026-05-06 02:17 59.36511 -138.93443 39043 ft 485 kts 115°
2026-05-06 02:17 59.34149 -138.81049 39047 ft 486 kts 115°
2026-05-06 02:18 59.31774 -138.68669 39043 ft 486 kts 115°
2026-05-06 02:18 59.29387 -138.56307 39064 ft 485 kts 115°
2026-05-06 02:19 59.26994 -138.43980 39041 ft 485 kts 115°
2026-05-06 02:19 59.24593 -138.31691 39055 ft 484 kts 115°
2026-05-06 02:20 59.20970 -138.13307 39061 ft 483 kts 116°
2026-05-06 02:21 59.18550 -138.01118 39058 ft 483 kts 116°
2026-05-06 02:21 59.16112 -137.88911 39026 ft 483 kts 116°
2026-05-06 02:21 59.14899 -137.82857 38863 ft 475 kts 116°
2026-05-06 02:22 59.13702 -137.76892 38226 ft 472 kts 116°
2026-05-06 02:22 59.12497 -137.70927 37329 ft 475 kts 117°
2026-05-06 02:22 59.11278 -137.64922 36332 ft 480 kts 117°
2026-05-06 02:22 59.10045 -137.58868 35391 ft 483 kts 117°
2026-05-06 02:23 59.08801 -137.52774 34523 ft 485 kts 117°
2026-05-06 02:23 59.07577 -137.46656 33507 ft 486 kts 116°
2026-05-06 02:23 59.06338 -137.40528 32374 ft 488 kts 117°
2026-05-06 02:23 59.05071 -137.34397 31273 ft 490 kts 117°
2026-05-06 02:24 59.03792 -137.28256 30154 ft 491 kts 117°
2026-05-06 02:24 59.02516 -137.22089 28805 ft 492 kts 117°
2026-05-06 02:24 59.01234 -137.15928 27427 ft 493 kts 117°
2026-05-06 02:24 58.99944 -137.09762 26116 ft 493 kts 116°
2026-05-06 02:25 58.98657 -137.03614 24894 ft 491 kts 116°
2026-05-06 02:25 58.97380 -136.97518 23821 ft 486 kts 116°
2026-05-06 02:25 58.96115 -136.91492 22689 ft 479 kts 116°
2026-05-06 02:25 58.94880 -136.85634 21591 ft 472 kts 116°
2026-05-06 02:26 58.93633 -136.79719 20568 ft 464 kts 116°
2026-05-06 02:26 58.92422 -136.73983 19624 ft 457 kts 116°
2026-05-06 02:26 58.91226 -136.68347 18854 ft 450 kts 115°
2026-05-06 02:26 58.90038 -136.62767 17993 ft 447 kts 116°
2026-05-06 02:27 58.88827 -136.57275 17091 ft 442 kts 116°
2026-05-06 02:27 58.87644 -136.51809 16206 ft 439 kts 115°
2026-05-06 02:27 58.86502 -136.46433 15589 ft 426 kts 115°
2026-05-06 02:27 58.85390 -136.41188 14769 ft 418 kts 115°
2026-05-06 02:28 58.84289 -136.36028 13866 ft 414 kts 115°
2026-05-06 02:28 58.83194 -136.30934 12955 ft 408 kts 115°
2026-05-06 02:28 58.82113 -136.25931 12079 ft 399 kts 116°
2026-05-06 02:28 58.81071 -136.21117 11283 ft 378 kts 116°
2026-05-06 02:29 58.80105 -136.16656 11067 ft 345 kts 116°
2026-05-06 02:29 58.79200 -136.12499 10914 ft 331 kts 116°
2026-05-06 02:29 58.78292 -136.08374 10659 ft 345 kts 117°
2026-05-06 02:29 58.77285 -136.03846 10464 ft 385 kts 116°
2026-05-06 02:30 58.76256 -135.99180 10214 ft 375 kts 116°
2026-05-06 02:30 58.75272 -135.94666 9946 ft 349 kts 116°
2026-05-06 02:30 58.74356 -135.90491 9683 ft 337 kts 116°
2026-05-06 02:30 58.73459 -135.86413 9401 ft 325 kts 117°
2026-05-06 02:31 58.72591 -135.82484 9142 ft 314 kts 117°
2026-05-06 02:31 58.71746 -135.78669 8864 ft 306 kts 117°
2026-05-06 02:31 58.70924 -135.74937 8589 ft 292 kts 117°
2026-05-06 02:31 58.70139 -135.71428 8332 ft 289 kts 117°
2026-05-06 02:32 58.69329 -135.67909 8082 ft 288 kts 118°
2026-05-06 02:32 58.68520 -135.64334 7994 ft 288 kts 117°
2026-05-06 02:32 58.67712 -135.60799 7991 ft 290 kts 116°
2026-05-06 02:32 58.67018 -135.57138 7976 ft 291 kts 115°
2026-05-06 02:33 58.66228 -135.53599 7965 ft 286 kts 118°
2026-05-06 02:33 58.65688 -135.51327 7920 ft 285 kts 118°
2026-05-06 02:33 58.63834 -135.43245 7966 ft 275 kts 116°
2026-05-06 02:34 58.63066 -135.39903 7980 ft 272 kts 118°
2026-05-06 02:34 58.62273 -135.36585 7977 ft 275 kts 117°
2026-05-06 02:34 58.61496 -135.33268 7966 ft 272 kts 123°
2026-05-06 02:34 58.60782 -135.29925 7965 ft 279 kts 97°
2026-05-06 02:35 58.60723 -135.26202 7984 ft 280 kts 96°
2026-05-06 02:35 58.60497 -135.22504 7996 ft 277 kts 102°
2026-05-06 02:35 58.60182 -135.18887 8000 ft 273 kts 103°
2026-05-06 02:35 58.59847 -135.15328 7980 ft 270 kts 103°
2026-05-06 02:36 58.59508 -135.11785 7963 ft 270 kts 103°
2026-05-06 02:36 58.59031 -135.08384 7778 ft 257 kts 122°
2026-05-06 02:36 58.57913 -135.05981 7681 ft 232 kts 150°
2026-05-06 02:36 58.56494 -135.04663 7549 ft 233 kts 168°
2026-05-06 02:37 58.54900 -135.04151 7493 ft 237 kts 177°
2026-05-06 02:37 58.53263 -135.03866 7474 ft 234 kts 178°
2026-05-06 02:37 58.51659 -135.03615 7418 ft 229 kts 178°
2026-05-06 02:37 58.50040 -135.03351 7194 ft 231 kts 179°
2026-05-06 02:38 58.48447 -135.03074 6975 ft 228 kts 178°
2026-05-06 02:38 58.46837 -135.02748 6674 ft 232 kts 178°
2026-05-06 02:38 58.45324 -135.02460 6775 ft 213 kts 179°
2026-05-06 02:38 58.43919 -135.02248 6605 ft 191 kts 180°
2026-05-06 02:39 58.42680 -135.02058 6436 ft 167 kts 180°
2026-05-06 02:39 58.41592 -135.01884 6211 ft 150 kts 181°
2026-05-06 02:39 58.40526 -135.01720 5595 ft 158 kts 180°
2026-05-06 02:39 58.39407 -135.01534 5007 ft 159 kts 179°
2026-05-06 02:40 58.38331 -135.01342 4366 ft 157 kts 178°
2026-05-06 02:40 58.37251 -135.01151 3712 ft 155 kts 178°
2026-05-06 02:40 58.36226 -135.00587 3030 ft 159 kts 146°
2026-05-06 02:40 58.35720 -134.98774 2495 ft 157 kts 94°
2026-05-06 02:41 58.35735 -134.96924 2567 ft 133 kts 94°
2026-05-06 02:41 58.35724 -134.94936 2730 ft 169 kts 93°
2026-05-06 02:41 58.35721 -134.92721 2725 ft 167 kts 93°
2026-05-06 02:41 58.35723 -134.90506 2726 ft 168 kts 92°
2026-05-06 02:42 58.35728 -134.88286 2730 ft 166 kts 92°
2026-05-06 02:42 58.35734 -134.86123 2726 ft 161 kts 92°
2026-05-06 02:42 58.35739 -134.83925 2592 ft 166 kts 92°
2026-05-06 02:42 58.35744 -134.81734 2360 ft 164 kts 92°
2026-05-06 02:43 58.35752 -134.79587 2140 ft 159 kts 92°
2026-05-06 02:43 58.35849 -134.77488 1926 ft 161 kts 82°
2026-05-06 02:43 58.36144 -134.75424 1739 ft 159 kts 75°
2026-05-06 02:43 58.36478 -134.73423 1772 ft 158 kts 78°
2026-05-06 02:44 58.36652 -134.71312 1890 ft 161 kts 87°
2026-05-06 02:44 58.36740 -134.69241 1749 ft 158 kts 88°
2026-05-06 02:44 58.36777 -134.67206 1510 ft 146 kts 96°
2026-05-06 02:44 58.36636 -134.65355 1329 ft 144 kts 108°
2026-05-06 02:45 58.36366 -134.63596 1004 ft 141 kts 112°
2026-05-06 02:45 58.36107 -134.61802 568 ft 141 kts 110°
2026-05-06 02:45 58.35837 -134.59995 126 ft 140 kts 109°
2026-05-06 02:45 58.35585 -134.58256 40 ft 133 kts 106°
2026-05-06 02:46 58.35361 -134.56646 33 ft 104 kts 104°
2026-05-06 02:46 58.35255 -134.55879 31 ft 30 kts 104°
2026-05-06 02:46 58.35210 -134.55528 30 ft 22 kts 96°
2026-05-06 02:46 58.35256 -134.55353 32 ft 15 kts 356°
2026-05-06 02:47 58.35311 -134.55502 32 ft 15 kts 282°
2026-05-06 02:47 58.35335 -134.55686 32 ft 14 kts 286°
2026-05-06 02:47 58.35365 -134.55882 32 ft 18 kts 285°
2026-05-06 02:47 58.35399 -134.56130 31 ft 20 kts 284°
2026-05-06 02:48 58.35440 -134.56331 33 ft 14 kts 334°
2026-05-06 02:48 58.35509 -134.56394 33 ft 12 kts 289°
2026-05-06 02:48 58.35556 -134.56506 33 ft 13 kts 350°
2026-05-06 02:48 58.35621 -134.56499 33 ft 15 kts 343°
2026-05-06 02:49 58.35634 -134.56559 32 ft 0 kts 265°